Location: B?ezina
(49.8085°N, 13.6013°E)
Time: 01:43:30
(UTC+00:00)

Meteor 1-27 Rocket - Pass Details

Date: 19 May 2025
Orbit: 830 x 908 km, 81.3° (Epoch: 23 June)

Event Time Altitude Azimuth Distance (km) Brightness Sun altitude
Exits shadow 22:30:55 27° 215° (SW) 1,573 4.7 -19.9°
Maximum altitude 22:33:55 60° 286° (WNW) 966 4.1 -19.9°
Drops below altitude 10° 22:39:24 10° 6° (N) 2,456 7.3 -20.0°
Sets 22:41:51 0° 10° (N) 3,390 8.2 -20.1°
